loading
|
Showing default

OPS 9311 (IDSCS 1), 2215

Orbit data source: Space-Track

OPS 9311 (IDSCS 1), 2215 is a payload satellite owned by USAF SSD (US) that was launched on Thu, 16 Jun 1966 UTC via a TITAN IIIC launch vehicle from the Air Force Eastern Test Range (AFETR). Payloads include a variety of satellites, spacecraft, and rockets equipped with specific instruments for various scientific and technological missions. These include communications satellites like Starlink; space stations such as the ISS; scientific satellites like the Hubble; Earth observation satellites from companies like Planet Labs, Umbra, and HawkEye 360; GPS; miniature CubeSats for education and research; and military/defense satellites.

Next visibility unknown
Loading greatness...
OPS 9311 (IDSCS 1) details
Identifier
2215, 1966-053B
Orbit
Active
Last TLE update1 day ago
Origin
Flag of USUSAF SSD (US)
ManufacturerPhilco-Ford WDL
MissionNon-operational Defense Communications
Bus & MotorIDCSP, Unknown motor
Mass45 kg wet, 45 kg dry
Launch date (UTC)
1966-06-16 (58 years ago)
Launch vehicle
TITAN IIIC
Launch site
Air Force Eastern Test Range (AFETR)
Object type
Payload
Rocket body
Debris
Shape & HBRIco Poly, 0.9 m
Radar Cross Section0.926 m², Medium (>0.1 m² and < 1m²)

Expand to show TLE details & history

TLE from 1 day ago
0 OPS 9311 (IDSCS 1)
1 02215U 66053B   24278.87244936 -.00000118  00000-0  00000-0 0  9997
2 02215   7.5164  49.1363 0030587 204.3894 155.5119  1.07910502127679
Epoch: 2024-10-04T20:56Z
Definitive object data (Epoch: 2024-10-04T20:56:19.624Z)
Latitude-0.00001°
Longitude81.03146°
Altitude33,883.738 km
Speed3.142 km/s
True Right ascension03h 16m 36s
True Declination0° 00' 00"
Sunlit
Object was in daylight at TLE epoch
Predictive object data (real-time)
Latitude6.57664°
Longitude142.03488°
Altitude33,869.248 km
Speed3.143 km/s
Apparent Right ascension07h 05m 50s
Apparent Declination0° 41' 39"
Sunlit
Object is in daylight
Predictive observer data (real-time)
Local Sidereal Time16:58:53
Azimuth316.539° NNW
Elevation-40.128°
Doppler factor1
Orbital elements
Apogee33,896.43 km
Perigee33,650.805 km
Semi-major axis40,151.754 km
Eccentricity0.0030587
Inclination7.5164°
RAAN49.1363°
Arg. of periapsis204.3894°
True anomaly155.65668°
Mean anomaly155.5119°
Eccentric anomaly155.58434°
Mean motion0.26977 °/min
BSTARUnknown
Period1334.49 mins
No data available

OPS 9311 (IDSCS 1) Visibility forecast

Observer location: 39.9160978°, -105.1181434

OPS 9311 (IDSCS 1) is not visible in the next 10 days
Span
Click to sort rows by Start time (UTC) header in descending order
Start Az.
Max El. time (UTC)
Max El. Az.
Max El.
End time (UTC)
End Az.